Weather History for Hanford, WA

Change the Weather History Date:

Monday, January 7, 2013

  Actual Average Record
Temperature  
Mean Temperature 31 °F -  
Max Temperature 35 °F 37 °F 61 °F (2002)
Min Temperature 27 °F 25 °F 7 °F (2004)
Degree Days  
Heating Degree Days 34    
Moisture  
Dew Point 29 °F    
Average Humidity 96    
Maximum Humidity 100    
Minimum Humidity 87    
Precipitation  
Precipitation 0.09 in - - ()
Snow  
Snow 0.00 in - - ()
Snow Depth 2.00 in    
Sea Level Pressure  
Sea Level Pressure 29.98 in    
Wind  
Wind Speed 3 mph (NW)    
Max Wind Speed 8 mph    
Max Gust Speed -    
Visibility 4 miles    
Events Fog , Rain , Snow    
Averages and records for this station are not official NWS values.
T = Trace of Precipitation, MM = Missing Value Source: NWS Daily Summary

Daily Weather History Graph

Daily Weather History Graph

Search for Another Location

Airport:

Trip Planner

Search our weather history database for the weather conditions in past years. The results will help you decide how hot, cold, wet, or windy it might be!

Date:

Astronomy

Jan. 07, 2013 Rise Set
Actual Time 7:41 AM PST 4:28 PM PST
Civil Twilight 7:07 AM PST 5:02 PM PST
Nautical Twilight 6:29 AM PST 5:40 PM PST
Astronomical Twilight 5:52 AM PST 6:17 PM PST
Moon 3:07 AM PST (1/7) 12:46 PM PST (1/7)
Length of Visible Light 9h 55m
Length of Day
8h 46m
Waning Crescent, 21% of the Moon is Illuminated
Jan 7
Waning Crescent
Jan 11
New
Jan 18
First Quarter
Jan 26
Full
Feb 3
Last Quarter

Hourly Weather History & Observations

Time (PST) Temp. Windchill Dew Point Humidity Pressure Visibility Wind Dir Wind Speed Gust Speed Precip Events Conditions
12:50 AM 28.2 °F - 28.2 °F 100% 30.09 in 1.0 mi SSW 2.3 mph - N/A   Mist
1:50 AM 28.6 °F - 28.2 °F 99% 30.09 in 3.0 mi NE 2.3 mph - 0.00 in Snow Light Snow
2:50 AM 28.6 °F 24.8 °F 28.2 °F 99% 30.08 in 1.0 mi NW 3.5 mph - 0.01 in Snow Light Snow
3:50 AM 28.8 °F - 28.4 °F 99% 30.05 in 1.0 mi North 2.3 mph - 0.04 in Snow Light Snow
4:50 AM 28.6 °F - 28.2 °F 99% 30.01 in 2.0 mi NNW 2.3 mph - 0.02 in Snow Light Snow
5:50 AM 28.4 °F 24.6 °F 28.2 °F 99% 30.01 in 2.0 mi NW 3.5 mph - 0.00 in   Overcast
6:50 AM 28.4 °F - 28.4 °F 100% 29.97 in 0.8 mi NW 2.3 mph - N/A   Mist
7:50 AM 29.1 °F 24.1 °F 29.1 °F 100% 29.95 in 0.8 mi NW 4.6 mph - 0.01 in Rain Light Freezing Rain
8:50 AM 29.1 °F 25.4 °F 28.8 °F 99% 29.95 in 2.0 mi NW 3.5 mph - 0.01 in   Overcast
9:50 AM 29.7 °F 24.7 °F 29.1 °F 98% 29.95 in 4.0 mi West 4.6 mph - N/A   Overcast
10:50 AM 30.7 °F 27.3 °F 29.3 °F 94% 29.93 in 6.0 mi NNW 3.5 mph - N/A   Overcast
11:50 AM 31.6 °F 28.3 °F 29.3 °F 91% 29.92 in 8.0 mi North 3.5 mph - N/A   Overcast
12:50 PM 32.5 °F 28.1 °F 30.2 °F 91% 29.91 in 8.0 mi NNE 4.6 mph - N/A   Overcast
1:50 PM 34.0 °F - 30.6 °F 87% 29.89 in 8.0 mi South 2.3 mph - N/A   Overcast
2:50 PM 32.2 °F 25.8 °F 30.6 °F 94% 29.91 in 4.0 mi NNE 6.9 mph - N/A   Overcast
3:50 PM 29.7 °F 26.1 °F 29.7 °F 100% 29.92 in 0.1 mi NNE 3.5 mph - N/A Fog Light Freezing Fog
4:50 PM 28.6 °F - 28.6 °F 100% 29.92 in 0.1 mi WSW 2.3 mph - N/A Fog Light Freezing Fog
5:50 PM 27.0 °F 20.5 °F 27.0 °F 100% 29.94 in 0.1 mi SW 5.8 mph - N/A Fog Light Freezing Fog
6:50 PM 27.7 °F 23.8 °F 27.7 °F 100% 29.95 in 0.1 mi North 3.5 mph - N/A Fog Light Freezing Fog
10:50 PM 35.1 °F 28.6 °F 31.6 °F 87% 30.05 in 15.0 mi SW 8.1 mph - N/A   Mostly Cloudy
11:50 PM 33.6 °F 27.5 °F 30.6 °F 89% 30.08 in 15.0 mi West 6.9 mph - N/A   Scattered Clouds